Voltar ao catálogo

COSMOS 1275 DEB

AtivoPO
NORAD 42164·DEBRIS·🇷🇺 Russia

Lançado Jun 4, 1981 de Plesetsk Cosmodrome

Loading…

Próximas Passagens (próximas 24 horas)

TLE

AtualizadoSource: Space-Track

Época: Sep 13, 2026, 07:29 UTC

1 42164U 81053SC  26256.31248698  .00006145  00000-0  12331-2 0  9994
2 42164  82.9142 262.6107 0021345  94.4182 265.9461 14.61440697668456

Acompanhe COSMOS 1275 DEB em tempo real com AllMySat

Download on the App Store